Ladysmith, WI

12:16 PM CDT on October 20, 2019 (GMT -0500)
Rusk County

Weather History for KRCX - July, 2019

Change the Weather History Date:

Thursday, July 25, 2019

  Actual Average (WUND) Record (WUND)
Temperature  
Mean Temperature 68 °F -  
Max Temperature 81 °F - - (-1)
Min Temperature 57 °F - - (-1)
Cooling Degree Days 4    
Growing Degree Days 18 (Base 50)    
Moisture  
Dew Point 60 °F    
Average Humidity 73    
Maximum Humidity 100    
Minimum Humidity 45    
Precipitation  
Precipitation 0.00 in - - ()
Sea Level Pressure  
Sea Level Pressure 30.12 in    
Wind  
Wind Speed 5 mph (SSW)    
Max Wind Speed 20 mph    
Max Gust Speed 26 mph    
Visibility 10 miles    
Events      
Averages and records for this station are not official NWS values.
T = Trace of Precipitation, MM = Missing Value Source: NWS Daily Summary

Daily Weather History Graph

Daily Weather History Graph

Search for Another Location

Airport or City:

Astronomy

Jul. 25, 2019 Rise Set
Actual Time 5:39 AM CDT 8:40 PM CDT
Civil Twilight 5:04 AM CDT 9:15 PM CDT
Nautical Twilight 4:19 AM CDT 10:00 PM CDT
Astronomical Twilight 3:25 AM CDT 10:54 PM CDT
Moon 12:34 AM CDT (7/25) 2:14 PM CDT (7/25)
Length of Visible Light 16h 10m
Length of Day
15h 00m
Last Quarter, 44% of the Moon is Illuminated
Jul 25
Last Quarter
Jul 31
New
Aug 7
First Quarter
Aug 15
Full
Aug 23
Last Quarter

Hourly Weather History & Observations

Time (CDT) Temp. Heat Index Dew Point Humidity Pressure Visibility Wind Dir Wind Speed Gust Speed Precip Events Conditions
12:15 AM 64.2 °F - 63.3 °F 97% 30.14 in 10.0 mi Calm Calm - N/A   Clear
12:35 AM 63.9 °F - 63.3 °F 98% 30.14 in 10.0 mi Calm Calm - N/A   Clear
12:55 AM 63.0 °F - 62.6 °F 99% 30.14 in 7.0 mi Calm Calm - N/A   Clear
1:15 AM 63.0 °F - 62.8 °F 99% 30.13 in 10.0 mi Calm Calm - N/A   Clear
1:35 AM 62.4 °F - 62.1 °F 99% 30.14 in 7.0 mi Calm Calm - N/A   Clear
1:55 AM 62.2 °F - 62.1 °F 99% 30.13 in 7.0 mi Calm Calm - N/A   Clear
2:15 AM 61.7 °F - 61.7 °F 100% 30.14 in 10.0 mi Calm Calm - N/A   Clear
2:35 AM 61.0 °F - 60.8 °F 99% 30.14 in 7.0 mi Calm Calm - N/A   Clear
2:55 AM 60.8 °F - 60.8 °F 100% 30.14 in 10.0 mi Calm Calm - N/A   Clear
3:15 AM 59.0 °F - 58.8 °F 99% 30.14 in 10.0 mi Calm Calm - N/A   Clear
3:35 AM 59.2 °F - 59.2 °F 100% 30.14 in 1.5 mi Calm Calm - N/A   Mist
3:55 AM 58.5 °F - 58.5 °F 100% 30.14 in 7.0 mi Calm Calm - N/A   Clear
4:15 AM 59.2 °F - 59.2 °F 100% 30.15 in 7.0 mi Calm Calm - N/A   Clear
4:35 AM 58.3 °F - 58.3 °F 100% 30.15 in 10.0 mi Calm Calm - N/A   Clear
5:15 AM 57.7 °F - 57.7 °F 100% 30.15 in 10.0 mi Calm Calm - N/A   Clear
5:35 AM 58.1 °F - 58.1 °F 100% 30.15 in 10.0 mi Calm Calm - N/A   Clear
5:55 AM 58.1 °F - 58.1 °F 100% 30.15 in 10.0 mi ESE 5.8 mph - N/A   Clear
6:15 AM 58.3 °F - 58.3 °F 100% 30.15 in 7.0 mi East 4.6 mph - N/A   Clear
6:35 AM 58.5 °F - 58.5 °F 100% 30.16 in 7.0 mi Calm Calm - N/A   Clear
6:55 AM 59.0 °F - 59.0 °F 100% 30.15 in 7.0 mi ESE 4.6 mph - N/A   Clear
7:15 AM 59.9 °F - 59.9 °F 100% 30.15 in 7.0 mi Calm Calm - N/A   Clear
7:35 AM 61.2 °F - 61.2 °F 100% 30.15 in 10.0 mi Calm Calm - N/A   Clear
7:55 AM 63.0 °F - 63.0 °F 100% 30.15 in 10.0 mi SE 3.5 mph - N/A   Clear
8:15 AM 64.9 °F - 63.9 °F 96% 30.15 in 10.0 mi SSE 4.6 mph - N/A   Clear
8:35 AM 67.6 °F - 63.9 °F 88% 30.15 in 10.0 mi South 5.8 mph - N/A   Clear
8:55 AM 70.2 °F - 63.9 °F 80% 30.15 in 10.0 mi South 5.8 mph - N/A   Clear
9:15 AM 71.8 °F - 63.5 °F 75% 30.15 in 10.0 mi South 5.8 mph - N/A   Clear
9:35 AM 73.0 °F - 62.1 °F 68% 30.15 in 10.0 mi SSW 6.9 mph - N/A   Clear
9:55 AM 75.2 °F - 63.0 °F 66% 30.15 in 10.0 mi SSW 8.1 mph - N/A   Clear
10:15 AM 76.1 °F - 62.1 °F 62% 30.15 in 10.0 mi SSW 11.5 mph 17.3 mph N/A   Clear
10:35 AM 76.6 °F - 60.1 °F 56% 30.15 in 10.0 mi SSW 16.1 mph - N/A   Clear
10:55 AM 77.0 °F - 60.3 °F 56% 30.14 in 10.0 mi SSW 10.4 mph 17.3 mph N/A   Clear
11:15 AM 77.9 °F - 60.4 °F 55% 30.14 in 10.0 mi SSW 13.8 mph 18.4 mph N/A   Clear
11:35 AM 78.4 °F - 59.9 °F 53% 30.14 in 10.0 mi SSW 15.0 mph - N/A   Clear
11:55 AM 78.1 °F - 59.4 °F 52% 30.14 in 10.0 mi South 13.8 mph 18.4 mph N/A   Scattered Clouds
12:15 PM 78.8 °F - 58.3 °F 49% 30.14 in 10.0 mi SSW 13.8 mph 21.9 mph N/A   Scattered Clouds
12:35 PM 79.0 °F - 59.9 °F 52% 30.13 in 10.0 mi SSW 11.5 mph - N/A   Scattered Clouds
12:55 PM 79.9 °F - 59.2 °F 49% 30.13 in 10.0 mi SSW 16.1 mph - N/A   Scattered Clouds
1:15 PM 80.4 °F 80.7 °F 57.6 °F 45% 30.13 in 10.0 mi SW 17.3 mph 26.5 mph N/A   Scattered Clouds
1:35 PM 80.4 °F 81.0 °F 58.8 °F 48% 30.12 in 10.0 mi SSW 15.0 mph - N/A   Scattered Clouds
1:55 PM 79.5 °F - 58.5 °F 48% 30.12 in 10.0 mi SSW 13.8 mph 20.7 mph N/A   Scattered Clouds
2:15 PM 80.4 °F 81.2 °F 60.4 °F 50% 30.11 in 10.0 mi SSW 15.0 mph 19.6 mph N/A   Scattered Clouds
2:35 PM 79.7 °F - 59.7 °F 50% 30.11 in 10.0 mi SW 11.5 mph 19.6 mph N/A   Scattered Clouds
2:55 PM 80.4 °F 81.0 °F 59.0 °F 48% 30.11 in 10.0 mi South 16.1 mph 24.2 mph N/A   Scattered Clouds
3:15 PM 80.6 °F 80.8 °F 57.7 °F 45% 30.11 in 10.0 mi SSW 15.0 mph 23.0 mph N/A   Scattered Clouds
3:35 PM 80.6 °F 81.1 °F 59.2 °F 48% 30.10 in 10.0 mi SSW 17.3 mph 21.9 mph N/A   Scattered Clouds
3:55 PM 79.9 °F - 59.0 °F 49% 30.10 in 10.0 mi SSW 17.3 mph 26.5 mph N/A   Scattered Clouds
4:15 PM 80.6 °F 81.2 °F 59.5 °F 49% 30.09 in 10.0 mi SSW 19.6 mph 24.2 mph N/A   Scattered Clouds
4:35 PM 80.8 °F 81.8 °F 61.5 °F 52% 30.09 in 10.0 mi SSW 12.7 mph - N/A   Scattered Clouds
4:55 PM 79.7 °F - 61.7 °F 54% 30.09 in 10.0 mi SSW 13.8 mph 21.9 mph N/A   Mostly Cloudy
5:15 PM 79.7 °F - 62.2 °F 55% 30.08 in 10.0 mi SSW 11.5 mph 18.4 mph N/A   Scattered Clouds
5:35 PM 78.1 °F - 60.4 °F 54% 30.08 in 10.0 mi SSW 12.7 mph 19.6 mph N/A   Mostly Cloudy
5:55 PM 78.4 °F - 61.0 °F 55% 30.08 in 10.0 mi SW 11.5 mph 17.3 mph N/A   Mostly Cloudy
6:15 PM 79.5 °F - 59.5 °F 50% 30.08 in 10.0 mi SSW 12.7 mph - N/A   Mostly Cloudy
6:35 PM 79.0 °F - 59.9 °F 52% 30.08 in 10.0 mi SW 15.0 mph 18.4 mph N/A   Scattered Clouds
6:55 PM 77.0 °F - 59.5 °F 55% 30.08 in 10.0 mi SSW 10.4 mph - N/A   Scattered Clouds
7:15 PM 76.3 °F - 59.5 °F 56% 30.08 in 10.0 mi SSW 9.2 mph - N/A   Overcast
7:35 PM 76.8 °F - 60.6 °F 57% 30.08 in 10.0 mi SSW 8.1 mph - N/A   Overcast
7:55 PM 76.5 °F - 60.1 °F 57% 30.08 in 10.0 mi SW 11.5 mph - N/A   Scattered Clouds
8:15 PM 74.5 °F - 59.5 °F 60% 30.08 in 10.0 mi SSW 9.2 mph - N/A   Scattered Clouds
8:35 PM 73.0 °F - 59.9 °F 63% 30.08 in 10.0 mi SW 5.8 mph - N/A   Scattered Clouds
8:55 PM 71.8 °F - 60.1 °F 67% 30.09 in 10.0 mi SSW 5.8 mph - N/A   Clear
9:15 PM 70.7 °F - 60.1 °F 69% 30.09 in 10.0 mi SSW 6.9 mph - N/A   Clear
9:35 PM 70.0 °F - 60.3 °F 71% 30.08 in 10.0 mi SSW 5.8 mph - N/A   Clear
9:55 PM 68.9 °F - 60.4 °F 74% 30.08 in 10.0 mi SSW 4.6 mph - N/A   Clear
10:15 PM 68.9 °F - 60.8 °F 75% 30.09 in 10.0 mi SSW 4.6 mph - N/A   Clear
10:35 PM 68.4 °F - 60.8 °F 77% 30.09 in 10.0 mi SW 4.6 mph - N/A   Clear
10:55 PM 68.2 °F - 60.8 °F 77% 30.09 in 10.0 mi South 4.6 mph - N/A   Clear
11:15 PM 67.6 °F - 60.4 °F 78% 30.09 in 10.0 mi South 4.6 mph - N/A   Clear
11:35 PM 67.1 °F - 59.9 °F 78% 30.09 in 10.0 mi SSW 4.6 mph - N/A   Clear
11:55 PM 66.6 °F - 59.5 °F 78% 30.10 in 10.0 mi Calm Calm - N/A   Clear